Wind_Speed
10 8 8 9 4 6 11 14 13 9 26 13 15 15 14 17 13 8 7 10 14 13 12 14 15 16 15 13 13 12 12 13 13 13 13 12 12 11 11 10 11 11 10
14 13 10 12 14 11 12 11 10 15 26 27 19 18 16 15 13 14 14 12 14 13 13 15 16 18 17 15 13 13 14 15 15 14 15 14 14 14 13 13 13 12 13
15 15 15 15 14 12 15 9 15 12 39 49 25 18 18 16 17 15 13 15 14 17 16 15 19 19 21 19 14 13 15 17 17 16 17 15 17 16 16 15 15 15 14
12 15 14 13 16 12 13 14 26 13 24 36 22 20 19 17 17 18 17 16 15 19 20 18 19 22 23 22 18 16 16 19 20 19 19 19 18 19 19 18 18 17 18
15 17 19 15 14 12 11 15 21 24 18 24 19 13 19 16 16 16 17 15 17 13 13 21 20 23 24 26 23 19 20 23 22 22 21 21 21 21 20 20 19 20 20
12 14 18 21 15 16 19 18 17 14 21 29 21 17 19 15 19 17 17 14 15 18 16 15 22 25 25 26 29 24 21 24 27 25 23 23 22 22 21 20 21 21 22
17 14 16 21 20 21 22 22 15 18 18 27 12 5 6 15 24 23 21 20 19 19 20 23 17 25 28 29 32 31 26 25 27 25 26 27 26 24 23 21 22 24 25
11 14 16 18 18 21 21 24 22 16 23 23 4 3 3 14 23 30 25 18 18 17 15 17 22 19 24 29 29 30 28 31 28 29 25 28 29 29 27 25 23 25 27
11 14 18 18 19 18 21 22 22 22 18 16 12 7 4 5 8 18 18 14 16 18 17 17 19 24 26 28 29 31 30 28 29 30 30 28 28 31 31 31 30 27 29
10 10 13 14 17 17 18 19 19 20 18 17 11 18 23 11 3 1 5 12 13 11 16 18 18 21 26 22 26 31 27 24 26 25 25 25 27 28 31 32 32 31 30
3 7 10 12 15 15 16 16 16 18 18 19 16 10 14 17 12 6 1 3 7 10 15 15 19 22 21 22 24 25 28 22 21 19 19 21 21 23 27 29 30 32 32
12 17 11 12 14 14 14 14 12 14 14 15 15 14 15 8 6 6 3 3 4 6 4 7 18 13 22 22 11 12 14 20 23 18 16 18 20 20 22 24 27 28 30
16 17 15 14 14 13 8 6 8 9 11 14 13 14 16 18 17 8 7 6 5 2 1 6 6 5 13 12 10 10 8 12 9 9 11 13 17 15 17 18 21 25 26
14 17 17 15 13 11 7 5 2 2 5 10 12 15 15 16 19 13 14 11 2 3 7 3 3 5 11 15 15 11 5 5 6 7 7 10 12 12 13 14 17 18 19
13 16 16 16 13 13 8 4 3 2 5 10 13 13 15 16 15 12 15 10 8 2 3 2 3 7 8 11 12 10 11 11 10 8 5 4 5 4 6 5 7 8 9
13 16 16 15 16 17 13 9 6 4 4 4 1 6 8 9 12 10 5 3 9 7 2 1 4 4 5 10 11 11 11 11 14 12 9 7 6 5 5 5 5 5 4
13 14 16 18 18 17 18 17 14 13 12 11 9 7 6 4 1 3 5 7 5 7 4 2 4 5 8 11 12 14 15 15 15 13 13 14 15 14 13 11 9 7 7
12 14 15 17 18 18 16 14 14 14 13 12 12 11 11 7 9 8 8 6 5 3 2 5 6 6 9 10 11 12 15 14 16 13 10 11 10 9 8 7 6 7 8
10 14 15 16 18 18 16 15 15 15 15 16 16 15 14 12 11 10 9 8 6 5 5 6 5 5 7 9 13 14 15 15 15 17 16 15 16 15 14 12 13 11 9
10 11 12 12 15 16 18 15 14 14 14 15 15 15 14 12 10 11 12 11 10 10 10 13 12 10 9 7 7 11 14 13 13 12 15 15 14 13 13 12 12 11 10
9 10 10 12 13 12 16 13 14 15 15 16 16 18 18 15 14 11 11 12 12 14 14 15 13 11 10 6 5 4 10 11 12 12 14 15 13 14 16 16 15 12 11
8 9 9 12 12 12 13 13 13 13 13 13 13 13 15 21 22 19 15 12 11 9 11 11 9 9 7 7 4 6 10 3 3 5 8 12 10 14 14 15 15 14 14
7 9 9 10 11 13 13 13 13 13 14 13 12 11 13 10 12 15 15 19 22 18 11 11 12 9 7 6 7 8 5 5 5 8 8 8 8 9 9 10 9 9 9
8 8 8 9 9 12 13 14 14 13 16 14 13 11 12 13 13 13 16 20 18 16 14 12 13 11 12 10 8 7 8 11 9 5 5 3 2 4 5 5 6 6 7
10 8 8 8 8 9 7 8 12 11 9 10 10 11 9 9 9 10 11 13 14 16 17 17 16 15 10 8 7 4 3 7 7 4 5 4 3 2 4 4 7 6 6
12 12 13 9 9 7 4 5 7 9 11 9 9 7 8 7 7 9 6 8 9 7 5 7 10 12 13 11 12 11 14 10 9 8 5 3 6 7 5 7 1 3 3
Wind_Direction
241 225 217 208 219 227 249 238 217 300 297 230 227 220 222 231 214 200 184 202 201 209 203 202 207 210 209 206 212 217 220 224 233 232 230 232 231 233 230 223 218 224 227
234 232 242 254 263 245 251 238 195 220 277 290 238 223 224 224 231 226 217 216 222 223 217 214 215 217 216 215 220 224 229 231 232 236 239 237 238 241 241 230 237 231 233
231 239 251 260 262 221 234 245 186 223 252 263 242 225 217 225 229 226 227 218 239 234 230 225 223 222 223 220 227 233 243 240 240 238 241 241 240 241 242 242 240 236 238
239 253 250 249 253 247 237 220 179 183 241 255 236 214 208 223 233 234 223 231 222 233 225 230 230 223 226 223 222 238 248 248 244 240 245 245 243 245 245 245 245 243 241
236 251 256 258 250 252 238 239 218 216 221 242 242 232 235 216 232 227 240 245 232 224 228 233 234 227 225 226 226 235 242 251 247 244 240 245 246 247 249 248 248 248 248
263 258 263 263 258 267 258 244 244 222 232 234 233 243 217 222 228 232 235 239 237 237 229 231 229 226 227 228 230 236 245 253 244 243 241 242 242 244 247 248 252 251 249
278 271 272 271 266 262 257 266 256 243 233 243 220 257 235 226 228 222 220 223 240 240 239 230 226 230 225 229 242 237 237 254 248 246 241 242 241 240 243 246 251 252 253
288 302 294 286 276 268 256 255 251 237 240 242 225 244 272 261 241 215 218 214 229 229 228 236 232 228 230 243 233 231 237 243 246 245 247 245 243 242 242 247 255 252 253
293 285 288 292 288 279 274 263 256 242 239 242 235 204 242 246 335 191 196 217 234 224 227 227 232 229 232 235 237 240 245 241 241 241 242 244 246 245 245 247 251 253 253
269 285 296 301 293 285 275 273 260 245 238 230 230 230 248 276 321 176 179 229 230 230 238 240 239 229 230 238 244 245 251 246 236 237 241 247 249 249 250 250 253 254 254
266 319 310 315 304 296 282 272 267 245 234 231 216 221 240 275 237 223 251 266 223 248 256 250 243 236 237 234 236 254 252 238 237 233 238 248 254 254 256 256 255 256 258
12 355 339 333 324 314 291 266 262 252 236 226 226 227 236 248 263 198 202 256 283 256 231 269 233 240 302 277 236 226 293 242 247 243 243 245 254 258 260 261 260 260 262
5 354 351 350 340 329 329 292 269 257 225 215 222 237 234 244 248 254 216 241 244 265 161 304 79 353 239 125 135 133 188 275 243 240 250 257 261 262 264 264 264 264 266
3 1 360 358 354 346 338 316 325 266 218 218 228 233 231 245 242 249 226 209 262 254 242 290 353 52 99 82 89 59 52 331 321 302 269 270 271 266 267 271 270 268 265
10 9 8 5 6 2 351 326 313 280 244 227 224 235 238 248 248 267 227 213 200 214 241 91 16 24 29 37 33 28 26 32 24 37 26 350 340 301 282 300 318 300 291
25 23 24 25 22 22 28 33 23 4 306 336 278 246 242 238 237 271 271 293 215 226 271 65 55 59 29 52 48 36 50 63 66 59 52 48 45 37 37 37 37 32 23
36 34 36 41 38 38 42 52 50 54 57 56 54 46 41 15 321 277 290 276 252 236 239 204 126 98 51 49 64 77 79 75 71 58 55 56 55 55 54 48 49 47 38
49 42 45 50 50 47 46 49 58 58 56 54 64 64 48 30 37 42 40 27 15 334 268 242 123 76 82 90 96 90 80 70 63 59 44 41 49 47 43 42 44 51 48
62 55 53 58 58 55 56 56 57 61 64 59 55 60 62 61 58 61 60 53 50 60 60 65 82 109 102 109 98 88 83 81 75 71 78 80 85 84 85 82 84 78 74
76 71 61 58 61 64 61 57 60 62 64 65 65 65 60 64 63 70 78 77 85 85 86 95 92 90 93 101 88 87 79 80 76 69 67 72 77 78 71 73 74 78 75
81 79 74 69 68 69 66 68 63 65 61 61 59 59 57 62 66 77 80 82 92 101 102 107 100 106 108 103 88 107 106 96 81 73 71 64 64 62 61 58 55 51 43
94 88 79 83 80 76 83 78 74 70 72 68 69 66 60 66 66 65 69 71 75 86 97 102 101 93 78 85 104 118 130 135 107 47 65 68 58 63 61 63 62 60 58
109 100 89 88 88 95 94 83 78 78 79 76 77 84 78 65 70 65 71 78 76 69 84 110 93 84 83 87 114 119 120 108 118 135 83 75 55 63 56 57 59 59 59
127 117 109 94 86 92 101 92 87 83 87 88 86 74 83 84 78 79 73 80 81 82 87 94 105 102 92 83 85 114 126 117 119 133 138 102 75 55 61 57 62 66 60
143 133 121 103 92 109 99 76 93 101 77 76 82 93 88 99 76 108 89 86 78 82 75 73 75 76 78 76 48 208 246 185 143 165 161 136 147 129 77 49 54 48 73
143 133 115 118 116 108 115 65 90 127 120 107 77 56 86 87 67 89 96 99 87 97 86 75 79 77 67 47 42 40 32 13 132 129 61 201 186 178 182 199 229 81 120
Height
826 826 828 828 830 831 831 829 832 839 844 843 841 842 841 843 841 843 844 846 848 849 849 851 854 855 859 861 862 864 867 870 873 874 875 876 878 878 879 880 882 883 884
825 825 829 827 826 829 828 828 830 831 840 839 840 837 838 839 841 839 841 843 845 845 845 847 850 852 856 858 861 862 864 866 869 871 873 874 876 877 878 879 880 881 882
821 822 826 825 821 824 824 829 827 828 827 830 836 831 832 833 836 836 837 839 841 841 843 843 845 848 852 854 858 860 863 865 866 867 869 871 873 874 875 877 877 879 880
820 821 823 824 819 820 820 823 828 825 827 828 818 823 823 828 831 832 834 835 837 837 838 839 841 843 846 850 852 855 858 861 862 863 865 867 869 870 871 873 874 875 876
815 817 820 820 819 816 817 818 820 824 821 822 821 820 819 821 827 829 828 830 831 834 835 836 837 840 842 845 846 848 850 854 857 859 859 861 864 865 867 868 869 871 872
813 814 814 814 816 813 812 814 815 821 821 821 817 813 814 817 823 826 825 825 827 829 832 832 834 835 837 839 841 841 844 847 849 852 853 854 856 859 861 863 865 867 867
814 812 810 809 808 810 809 807 813 816 811 807 815 812 813 815 818 819 820 820 821 823 826 829 828 831 832 835 836 837 839 842 845 847 848 849 851 853 854 858 859 861 863
809 806 807 806 805 804 805 806 808 813 812 816 813 812 815 814 812 811 814 817 818 819 821 822 823 826 828 830 829 830 832 835 839 841 843 844 846 847 848 851 853 855 856
804 804 804 802 802 801 798 799 803 806 809 809 809 812 814 814 808 806 813 816 817 817 818 820 820 821 821 822 826 828 831 831 833 834 836 837 840 841 842 844 846 848 849
805 804 802 799 798 796 795 795 798 799 803 805 807 808 809 812 812 814 814 815 814 814 815 816 816 817 820 825 826 829 830 830 830 830 831 832 833 834 836 838 839 841 843
804 803 801 797 795 793 792 792 793 795 799 801 804 806 807 807 809 811 812 812 811 811 812 814 813 816 820 818 821 822 825 827 829 826 825 829 830 829 830 831 833 834 836
802 800 798 796 793 791 790 790 791 792 796 799 802 804 805 806 805 807 809 810 810 809 810 810 811 815 817 818 802 819 812 814 825 826 823 824 826 824 824 825 826 828 829
802 800 797 795 793 791 789 789 790 791 793 797 799 801 803 803 804 806 807 809 808 808 809 810 813 811 800 813 815 817 819 821 820 819 818 820 820 819 819 819 820 821 822
805 802 799 796 794 793 791 790 790 791 792 795 797 799 801 802 802 806 805 807 808 807 808 809 809 813 815 818 818 814 818 818 815 814 815 817 817 815 815 815 815 815 816
806 804 801 798 795 794 792 791 792 792 794 795 797 798 800 800 801 804 804 804 806 808 807 807 808 810 810 811 812 814 815 815 813 812 812 815 813 813 812 811 811 811 812
807 805 804 801 798 796 793 792 794 793 794 794 795 797 798 799 800 801 802 804 804 805 808 807 808 808 808 808 810 812 813 814 815 817 816 815 812 812 811 810 810 811 812
809 808 806 803 801 799 798 797 797 798 797 798 798 798 799 799 800 801 801 802 804 805 806 807 808 809 809 810 811 813 815 816 816 815 815 814 813 812 811 811 811 812 813
811 811 808 806 804 804 803 802 802 802 802 801 801 800 801 801 801 802 802 802 803 804 806 805 809 810 812 813 813 812 813 816 816 814 815 815 814 813 812 812 813 814 813
813 812 811 810 808 808 808 808 808 807 807 807 806 805 804 804 804 804 804 805 805 806 806 807 811 813 815 815 815 815 814 816 819 818 818 817 817 816 816 816 815 816 817
813 813 814 813 812 812 812 812 812 811 811 810 810 809 809 808 808 807 806 805 805 806 807 809 813 815 817 819 819 818 819 821 822 822 822 821 821 821 822 821 821 822 822
816 815 816 816 816 815 815 816 816 815 815 815 814 814 813 813 812 811 811 810 810 810 811 811 814 817 818 818 819 820 822 824 825 826 825 825 826 826 826 825 824 825 825
816 817 819 818 818 818 818 818 818 818 818 818 818 819 819 818 817 816 815 815 814 814 814 815 818 820 821 821 821 823 824 825 827 829 829 829 830 829 828 828 829 828 828
817 818 820 820 819 818 820 820 820 820 820 820 821 821 822 822 822 821 820 819 818 818 819 820 821 822 823 823 823 824 825 825 827 829 830 831 832 831 831 831 831 831 830
818 819 821 821 821 821 821 821 822 823 822 822 823 824 824 824 824 825 824 823 822 822 822 823 824 824 825 825 825 825 825 826 828 829 830 832 833 832 832 832 833 833 833
817 819 820 822 822 823 823 822 822 823 824 826 826 826 826 826 827 827 826 826 827 827 828 827 827 827 827 827 827 826 827 826 827 829 830 831 831 832 832 833 833 834 834
817 819 820 822 823 824 823 823 823 823 824 826 829 830 828 828 828 828 829 829 830 831 831 830 829 829 829 829 827 827 825 825 824 828 831 832 830 831 833 833 833 833 833